Hourly Data Report for July 24, 2013

All times are specified in Local Standard Time (LST). Add 1 hour to adjust for Daylight Saving Time where and when it is observed.

VICTORIA INTL A
BRITISH COLUMBIA

48°38'50.000" N
123°25'33.000" W
19.50 m
1018621
71799
YYJ

Download Data

Hourly Data (July 2013)
Hourly Data Report for July 24, 2013
Temp Definition
°C
Dew Point Temp Definition
°C
Rel Hum Definition
%
Wind Dir Definition
10's deg

Wind Spd Definition
km/h
Visibility Definition
km
Stn Press Definition
kPa
Hmdx Definition


Wind Chill Definition


Weather Definition


TIME
00:00 Legend Double Dagger 14.2 10.8 80 5 5 48.3 101.40     LegendNANA
01:00 Legend Double Dagger 13.3 10.7 84 7 4 48.3 101.41     Clear
02:00 Legend Double Dagger 13.6 10.6 82 11 4 48.3 101.42     LegendNANA
03:00 Legend Double Dagger 12.6 10.5 87 12 3 48.3 101.45     LegendNANA
04:00 Legend Double Dagger 11.8 10.4 91 9 3 48.3 101.48     Clear
05:00 Legend Double Dagger 11.6 10.2 91 10 4 48.3 101.50     LegendNANA
06:00 Legend Double Dagger 13.6 10.8 83 12 5 48.3 101.55     LegendNANA
07:00 Legend Double Dagger 14.7 11.1 79 13 8 48.3 101.56     Clear
08:00 Legend Double Dagger 17.1 11.7 70 11 5 48.3 101.55     LegendNANA
09:00 Legend Double Dagger 18.0 12.1 68 11 9 48.3 101.55     LegendNANA
10:00 Legend Double Dagger 20.5 12.8 61 12 10 48.3 101.55     Mainly Clear
11:00 Legend Double Dagger 20.7 12.8 60 11 11 48.3 101.54     LegendNANA
12:00 Legend Double Dagger 22.1 13.1 56 12 13 48.3 101.52 25   LegendNANA
13:00 Legend Double Dagger 21.1 12.4 57 12 18 48.3 101.50     Mostly Cloudy
14:00 Legend Double Dagger 21.8 11.9 53 12 21 48.3 101.49     LegendNANA
15:00 Legend Double Dagger 22.8 12.3 51 11 13 48.3 101.45 25   LegendNANA
16:00 Legend Double Dagger 21.5 11.7 53 12 17 48.3 101.39     Mainly Clear
17:00 Legend Double Dagger 21.5 9.9 47 10 15 48.3 101.35     LegendNANA
18:00 Legend Double Dagger 20.1 10.9 55 9 8 48.3 101.33     LegendNANA
19:00 Legend Double Dagger 18.5 10.9 61 12 6 48.3 101.35     Clear
20:00 Legend Double Dagger 18.2 10.9 62 8 5 48.3 101.36     LegendNANA
21:00 Legend Double Dagger 15.3 10.3 72 6 1 48.3 101.40     LegendNANA
22:00 Legend Double Dagger 15.5 10.5 72 14 2 48.3 101.41     Clear
23:00 Legend Double Dagger 13.6 10.1 79 10 3 48.3 101.42     LegendNANA

Notes on Data Quality.

Legend

  • E = Estimated
  • M = Missing
  • NA = Not Available
  • ‡ = Partner data that is not subject to review by the National Climate Archives
Date modified: